Flag for Congo Weather past 2 weeks in Brazzaville, Congo

Now
75 °F

Thunderstorms. Broken clouds.


Feels Like: 75 °F
Forecast: 76 / 88 °F
Wind: 10 mph from Southeast

Location: Brazzaville / Maya-Maya


UV Index: 3 (Moderate)

Visibility: 5 mi


Pressure: 29.83 "Hg

Humidity: 83%

Dew point: 70 °F

Location of BrazzavilleLocation

Historic Weather in Brazzaville

°F

Brazzaville temperature yesterday

Maximum temperature yesterday: 82 °F (at 2:00 PM)
Minimum temperature yesterday: 73 °F (at 7:00 AM)
Average temperature yesterday: 77 °F

Past Weeks' High & Low Weather Summary

 TemperatureHumidityPressure
High95 °F (Apr 18, 3:00 PM)100% (Apr 14, 6:00 AM)30.01 "Hg (Apr 14, 6:00 AM)
Low72 °F (Apr 14, 6:00 AM)44% (Apr 18, 2:00 PM)29.71 "Hg (Apr 17, 4:00 PM)
Average80 °F77%29.88 "Hg
* Reported Apr 9 1:00 PM — Apr 21 3:00 PM, Brazzaville, Weather by CustomWeather, © 2014

Note: Actual official high and low records may vary slightly from our data, if they occured in-between our weather recording intervals... More about our weather records

Advertising

Historic Weather Conditions — Data for Previous 24 hours

 ConditionsComfort  
Time TempWeatherWind HumidityBarometerVisibility
3:00 PM
Apr 21
79 °FStrong thunderstorms. Broken clouds.30 mph65%29.80 "HgN/A
2:00 PM86 °FScattered clouds.9 mph66%29.80 "HgN/A
1:00 PM86 °FScattered clouds.6 mph66%29.80 "HgN/A
12:00 PM84 °FScattered clouds.6 mph66%29.86 "HgN/A
11:00 AM82 °FPartly sunny.7 mph74%29.89 "HgN/A
10:00 AM77 °FPartly sunny.6 mph89%29.92 "HgN/A
9:00 AM77 °FPartly sunny.8 mph89%29.92 "HgN/A
8:00 AM77 °FThunderstorms. Passing clouds.3 mph83%29.92 "Hg4 mi
7:00 AM75 °FRain. Scattered clouds.2 mph94%29.89 "Hg5 mi
6:00 AM75 °FScattered clouds.2 mph94%29.89 "Hg5 mi
4:00 AM75 °FClear.No wind89%29.86 "Hg5 mi
2:00 AM77 °FClear.No wind83%29.86 "Hg5 mi
1:00 AM77 °FClear.3 mph83%29.86 "Hg5 mi
12:00 AM79 °FClear.No wind79%29.89 "Hg5 mi
11:00 PM
Apr 20
79 °FClear.No wind79%29.89 "Hg5 mi
10:00 PM79 °FClear.1 mph79%29.92 "Hg5 mi
9:00 PM79 °FClear.No wind84%29.86 "Hg5 mi
8:00 PM79 °FClear.2 mph84%29.86 "Hg10 mi
7:00 PM79 °FPassing clouds.3 mph74%29.83 "HgN/A
6:00 PM79 °FPassing clouds.3 mph79%29.80 "HgN/A
5:00 PM81 °FPassing clouds.6 mph74%29.77 "HgN/A
Weather by CustomWeather, © 2014

See weather overview